Starlink 1992

operational
NORAD ID: 47632 Int'l Des: 2021-012 Owner: SPXS Country: US Constellation: starlink
LEOCIRCULARSTARLINK_TYPE

Über Starlink 1992

Beschreibung wird geladen...

Live-Position

3D-Globus wird geladen...

Nächste Überflüge

Höhenverlauf

Altitude vs Time

uPlot chart will show altitude changes over time

Zweizeiliger Elementsatz

1 47632U 21012N 25302.44126057 .00016878 00000-0 11489-2 0 9994
2 47632 53.0531 205.8171 0001326 98.5055 261.6085 15.06410415261519
Epoch: 29. Okt. 2025 • Age: 9 hours

Aktueller Status

Höhe 547.9 km
Geschwindigkeit 7.59 km/s
Subsatellitenpunkt -0.18°S, 55.72°E
Startdatum 16. Feb. 2021
Alter 4.6 years
Typ internet

Technische Details

Klassifizierung Payload
Masse 260.00 kg
Trockenmasse 248.00 kg
Gesamtmasse 260.00 kg
Länge 0.20 m
Durchmesser 2.80 m
Spannweite 9.00 m
Form Box + pan
Hersteller SPXS
Bus-Typ Starlink
Phasenstatus In Orbit
Besitzer/Staat SPXS/US

Große Konstellationen

Loading constellations...